Location: Wanzleben
(52.0609°N, 11.4408°E)
Time: 11:20:28
(UTC+00:00)

USA 234 - Pass Details

Date: 18 September 2020
Orbit: 1102 x 1106 km, 123.0° (Epoch: 16 October)

Event Time Altitude Azimuth Distance (km) Brightness Sun altitude
Rises 20:15:36 0° 60° (ENE) 3,927 6.0 -25.4°
Enters shadow 20:16:06 - 60° (ENE) 3,734 5.9 -25.4°
Exits shadow 20:19:21 17° 64° (ENE) 2,496 4.9 -25.8°
Maximum altitude 20:24:39 75° 147° (SSE) 1,144 3.1 -26.4°
Drops below altitude 10° 20:31:12 10° 233° (SW) 2,960 5.6 -27.2°
Sets 20:33:41 0° 236° (SW) 3,916 6.3 -27.4°
